Total_Precipitation_Accumulation
0.52 0.52 0.52 0.51 0.52 0.54 0.60 0.61 0.63 0.64 0.66 0.67 0.70 0.74 0.78 0.83 0.88 0.90 0.95 1.03 1.07 1.09 1.11 1.17 1.20 1.28 1.22 1.09 1.08 1.13 1.26 1.34 1.16 1.22 1.19 0.96 0.82 0.71 0.63 0.54 0.39 0.31 0.27
0.47 0.48 0.50 0.47 0.44 0.46 0.47 0.48 0.50 0.53 0.56 0.57 0.60 0.63 0.68 0.74 0.82 0.91 0.97 1.02 1.03 1.03 1.06 1.12 1.13 1.12 1.12 1.06 0.96 0.92 1.07 1.20 1.17 1.18 1.31 1.21 0.93 0.78 0.70 0.60 0.46 0.36 0.34
0.47 0.47 0.44 0.46 0.47 0.44 0.38 0.37 0.37 0.41 0.47 0.46 0.46 0.48 0.54 0.64 0.75 0.81 0.85 0.90 0.97 1.05 1.02 1.01 1.00 1.01 1.11 1.14 1.05 0.99 1.02 1.13 1.21 1.19 1.29 1.32 1.09 0.86 0.81 0.73 0.63 0.60 0.41
0.43 0.42 0.40 0.39 0.39 0.41 0.39 0.35 0.33 0.34 0.38 0.41 0.43 0.47 0.51 0.56 0.63 0.67 0.67 0.67 0.69 0.78 0.81 0.80 0.78 0.78 0.90 1.09 1.10 1.12 1.11 1.05 1.12 1.18 1.28 1.33 1.32 1.09 0.98 0.90 0.85 0.78 0.64
0.45 0.41 0.40 0.39 0.36 0.33 0.31 0.29 0.28 0.27 0.27 0.30 0.34 0.41 0.46 0.48 0.47 0.49 0.52 0.48 0.46 0.45 0.47 0.51 0.54 0.56 0.57 0.67 0.84 1.01 1.08 1.08 1.06 1.10 1.18 1.26 1.24 1.20 1.02 0.92 0.89 0.93 0.89
0.35 0.33 0.36 0.37 0.35 0.35 0.29 0.24 0.23 0.22 0.24 0.27 0.29 0.30 0.32 0.33 0.37 0.37 0.37 0.35 0.32 0.29 0.28 0.29 0.30 0.34 0.36 0.42 0.50 0.65 0.82 0.95 1.07 1.14 1.13 1.15 1.18 1.18 1.12 1.01 0.96 0.93 1.01
0.27 0.30 0.32 0.35 0.38 0.36 0.27 0.23 0.21 0.20 0.22 0.25 0.26 0.26 0.25 0.28 0.26 0.26 0.29 0.26 0.24 0.24 0.25 0.24 0.20 0.20 0.24 0.28 0.32 0.36 0.46 0.56 0.67 0.90 1.04 1.02 0.99 1.02 1.10 1.13 1.09 1.10 1.15
0.30 0.35 0.36 0.36 0.39 0.38 0.32 0.28 0.25 0.24 0.24 0.25 0.27 0.26 0.25 0.25 0.21 0.20 0.21 0.20 0.23 0.25 0.22 0.22 0.20 0.17 0.18 0.22 0.26 0.28 0.25 0.27 0.35 0.47 0.54 0.57 0.63 0.75 0.91 1.07 1.18 1.25 1.37
0.36 0.40 0.41 0.40 0.41 0.41 0.39 0.37 0.36 0.36 0.31 0.26 0.28 0.30 0.28 0.26 0.23 0.20 0.20 0.20 0.23 0.26 0.23 0.23 0.22 0.18 0.17 0.17 0.21 0.26 0.22 0.20 0.25 0.31 0.35 0.40 0.45 0.50 0.56 0.70 0.86 1.06 1.39
0.35 0.36 0.35 0.39 0.44 0.46 0.46 0.47 0.46 0.46 0.39 0.33 0.31 0.32 0.31 0.30 0.25 0.20 0.19 0.21 0.26 0.29 0.26 0.24 0.24 0.23 0.19 0.17 0.18 0.22 0.23 0.20 0.19 0.22 0.26 0.28 0.29 0.32 0.33 0.37 0.48 0.67 0.95
0.36 0.37 0.37 0.39 0.45 0.47 0.53 0.57 0.59 0.55 0.51 0.45 0.40 0.37 0.37 0.32 0.27 0.20 0.20 0.24 0.30 0.35 0.33 0.29 0.27 0.27 0.22 0.20 0.21 0.21 0.21 0.21 0.21 0.22 0.25 0.28 0.28 0.27 0.27 0.26 0.28 0.34 0.48
0.41 0.40 0.40 0.44 0.37 0.38 0.55 0.62 0.66 0.67 0.62 0.55 0.54 0.49 0.45 0.40 0.32 0.26 0.23 0.26 0.31 0.40 0.41 0.38 0.32 0.31 0.28 0.25 0.24 0.23 0.23 0.23 0.22 0.24 0.25 0.29 0.29 0.27 0.25 0.25 0.25 0.28 0.32
0.51 0.53 0.53 0.51 0.49 0.52 0.61 0.65 0.67 0.69 0.67 0.60 0.60 0.60 0.57 0.52 0.46 0.34 0.29 0.30 0.32 0.42 0.45 0.46 0.41 0.33 0.33 0.30 0.31 0.29 0.23 0.22 0.22 0.23 0.25 0.29 0.25 0.21 0.19 0.23 0.26 0.27 0.28
0.60 0.61 0.65 0.67 0.64 0.64 0.73 0.75 0.73 0.72 0.72 0.68 0.67 0.64 0.63 0.62 0.58 0.51 0.43 0.40 0.40 0.40 0.43 0.48 0.48 0.40 0.35 0.35 0.36 0.34 0.27 0.24 0.25 0.22 0.24 0.27 0.26 0.23 0.21 0.20 0.21 0.23 0.27
0.67 0.64 0.68 0.75 0.80 0.79 0.78 0.77 0.76 0.77 0.73 0.71 0.71 0.68 0.67 0.64 0.58 0.55 0.53 0.50 0.49 0.47 0.49 0.54 0.56 0.49 0.42 0.38 0.38 0.38 0.35 0.31 0.28 0.24 0.24 0.27 0.27 0.26 0.25 0.23 0.20 0.18 0.19
0.76 0.72 0.70 0.71 0.76 0.77 0.76 0.63 0.54 0.55 0.49 0.46 0.50 0.54 0.55 0.52 0.51 0.50 0.49 0.48 0.50 0.55 0.56 0.55 0.58 0.60 0.53 0.45 0.40 0.41 0.41 0.35 0.28 0.24 0.24 0.25 0.25 0.24 0.24 0.25 0.23 0.21 0.21
0.76 0.74 0.72 0.71 0.73 0.74 0.73 0.67 0.60 0.53 0.50 0.46 0.44 0.42 0.43 0.44 0.48 0.48 0.48 0.50 0.51 0.55 0.55 0.55 0.57 0.60 0.59 0.54 0.46 0.41 0.41 0.36 0.29 0.26 0.25 0.26 0.24 0.23 0.23 0.24 0.22 0.22 0.21
0.68 0.68 0.67 0.67 0.67 0.68 0.69 0.69 0.70 0.65 0.61 0.58 0.53 0.47 0.40 0.38 0.42 0.46 0.49 0.52 0.50 0.47 0.48 0.53 0.57 0.56 0.56 0.53 0.48 0.46 0.42 0.37 0.31 0.28 0.26 0.25 0.24 0.22 0.23 0.22 0.21 0.20 0.20
0.67 0.67 0.66 0.64 0.62 0.60 0.63 0.69 0.71 0.69 0.67 0.66 0.63 0.55 0.48 0.43 0.42 0.47 0.49 0.48 0.43 0.39 0.41 0.50 0.53 0.52 0.50 0.46 0.43 0.43 0.38 0.33 0.29 0.26 0.25 0.23 0.22 0.20 0.22 0.23 0.20 0.20 0.18
0.71 0.70 0.75 0.72 0.63 0.60 0.62 0.69 0.71 0.69 0.69 0.71 0.69 0.59 0.49 0.46 0.44 0.46 0.45 0.42 0.38 0.33 0.35 0.44 0.50 0.49 0.46 0.42 0.39 0.35 0.33 0.31 0.28 0.23 0.21 0.19 0.18 0.17 0.18 0.20 0.20 0.18 0.17
0.78 0.71 0.70 0.67 0.63 0.62 0.66 0.71 0.73 0.70 0.67 0.67 0.66 0.55 0.46 0.40 0.37 0.36 0.37 0.37 0.33 0.29 0.32 0.41 0.45 0.45 0.42 0.38 0.34 0.29 0.27 0.28 0.24 0.19 0.17 0.16 0.13 0.14 0.14 0.15 0.16 0.15 0.13
0.85 0.78 0.68 0.63 0.62 0.68 0.71 0.72 0.74 0.68 0.61 0.61 0.62 0.53 0.44 0.38 0.35 0.32 0.31 0.31 0.29 0.26 0.30 0.36 0.39 0.39 0.35 0.30 0.27 0.26 0.24 0.23 0.21 0.17 0.15 0.13 0.11 0.11 0.11 0.12 0.15 0.15 0.13
0.83 0.81 0.74 0.65 0.58 0.62 0.66 0.68 0.66 0.61 0.57 0.54 0.54 0.47 0.41 0.38 0.33 0.27 0.27 0.27 0.26 0.26 0.27 0.30 0.30 0.30 0.27 0.23 0.21 0.21 0.21 0.18 0.16 0.13 0.11 0.10 0.08 0.08 0.09 0.10 0.11 0.13 0.13
0.76 0.77 0.75 0.66 0.55 0.53 0.59 0.63 0.62 0.60 0.58 0.54 0.46 0.40 0.37 0.35 0.30 0.25 0.24 0.23 0.24 0.23 0.22 0.23 0.22 0.21 0.21 0.19 0.19 0.18 0.16 0.13 0.10 0.08 0.07 0.07 0.07 0.07 0.07 0.07 0.08 0.11 0.14
0.72 0.71 0.72 0.67 0.56 0.51 0.58 0.64 0.62 0.56 0.51 0.45 0.38 0.33 0.31 0.28 0.26 0.24 0.21 0.19 0.19 0.19 0.17 0.17 0.17 0.16 0.16 0.15 0.16 0.16 0.12 0.09 0.07 0.05 0.05 0.05 0.05 0.06 0.06 0.06 0.07 0.09 0.12
0.72 0.70 0.67 0.62 0.55 0.50 0.52 0.57 0.56 0.50 0.45 0.38 0.29 0.26 0.25 0.24 0.22 0.19 0.17 0.14 0.14 0.14 0.14 0.13 0.13 0.13 0.12 0.14 0.14 0.11 0.08 0.06 0.04 0.04 0.03 0.03 0.04 0.05 0.05 0.05 0.05 0.06 0.07